DW6064 Weather Reports


time (UTC)temp
C
wind
direction
speed
KPH
gust
KPH
rain 1hr
cm
rain 24hr
cm
rain mn
cm
humidity
%
barometer
mb
20260904042534 21 168 11.3 12.9 0.05 0.56 0.00 90 1014.0
20260904042035 21 180 8.0 11.3 0.08 0.56 0.00 89 1014.2
20260904041537 21 161 4.8 8.0 0.08 0.56 0.00 90 1014.1
20260904041035 21 138 0.0 8.0 0.08 0.56 0.00 90 1014.1
20260904040557 21 138 1.6 14.5 0.10 0.56 0.00 89 1014.2
20260904040034 21 144 8.0 14.5 0.10 0.56 0.00 89 1014.0
20260904035557 21 174 6.4 9.7 0.13 0.56 0.56 88 1014.3
20260904035036 21 144 4.8 6.4 0.13 0.56 0.56 88 1014.5
20260904034532 22 144 1.6 12.9 0.15 0.56 0.56 88 1014.6
20260904034030 22 138 8.0 14.5 0.15 0.56 0.56 88 1014.7
20260904033551 22 132 9.7 14.5 0.18 0.56 0.56 87 1014.9
20260904033030 22 128 9.7 14.5 0.18 0.53 0.53 86 1014.9
20260904032526 22 196 1.6 9.7 0.18 0.51 0.51 87 1015.1
20260904032051 22 196 1.6 9.7 0.18 0.48 0.48 86 1015.3
20260904031527 22 185 3.2 9.7 0.18 0.48 0.48 86 1015.8
20260904031032 22 185 8.0 9.7 0.18 0.48 0.48 87 1015.9
20260904030529 22 255 1.6 12.9 0.15 0.46 0.46 86 1016.1
20260904030029 22 255 0.0 12.9 0.18 0.46 0.46 85 1016.2
20260904025551 22 264 1.6 14.5 0.15 0.43 0.43 85 1016.3
20260904025029 22 278 6.4 14.5 0.15 0.43 0.43 85 1016.3
20260904024547 23 269 1.6 8.0 0.13 0.41 0.41 86 1016.2
20260904024025 23 247 1.6 8.0 0.13 0.41 0.41 87 1016.2
20260904023542 23 151 1.6 8.0 0.10 0.38 0.38 87 1016.1
20260904023042 23 187 3.2 9.7 0.08 0.36 0.36 87 1016.2
20260904022539 23 187 6.4 9.7 0.05 0.33 0.33 85 1016.1
20260904022038 23 215 3.2 11.3 0.05 0.30 0.30 85 1016.0
20260904021535 23 184 4.8 8.0 0.05 0.30 0.30 84 1015.7
20260904021033 23 181 4.8 12.9 0.05 0.30 0.30 83 1015.7
20260904020532 23 184 3.2 16.1 0.05 0.30 0.30 82 1015.2
20260904020031 23 175 9.7 20.9 0.03 0.28 0.28 81 1014.6
20260904015529 24 152 17.7 20.9 0.03 0.28 0.28 81 1014.7
20260904015031 24 154 9.7 17.7 0.03 0.28 0.28 80 1014.3
20260904014527 24 143 4.8 27.4 0.03 0.28 0.28 77 1014.0
20260904014051 24 222 8.0 32.2 0.03 0.28 0.28 77 1014.3
20260904013528 25 299 16.1 32.2 0.03 0.28 0.28 77 1014.0
20260904013028 25 338 12.9 45.1 0.03 0.28 0.28 77 1013.8
20260904012525 26 274 22.5 56.3 0.03 0.28 0.28 76 1014.8
20260904012044 26 272 24.1 56.3 0.00 0.25 0.25 82 1015.1
20260904011543 27 148 0.0 3.2 0.00 0.25 0.25 85 1014.3
20260904011041 27 148 0.0 0.0 0.00 0.25 0.25 84 1014.1
20260904010538 27 148 0.0 1.6 0.00 0.25 0.25 84 1013.9
20260904010037 27 148 0.0 3.2 0.00 0.25 0.25 84 1013.7
20260904005535 27 148 0.0 8.0 0.00 0.25 0.25 82 1013.8
20260904005033 27 148 3.2 8.0 0.00 0.25 0.25 82 1013.8
20260904004529 27 131 3.2 4.8 0.00 0.25 0.25 81 1013.8
20260904004052 27 131 3.2 4.8 0.00 0.25 0.25 81 1013.7
20260904003529 27 131 1.6 4.8 0.00 0.25 0.25 81 1013.7
20260904003054 27 131 0.0 8.0 0.00 0.25 0.25 81 1013.8
20260904002530 27 131 4.8 8.0 0.00 0.25 0.25 80 1013.7
20260904002033 27 141 4.8 8.0 0.00 0.25 0.25 80 1013.7
20260904001531 27 175 3.2 6.4 0.00 0.25 0.25 80 1013.7
20260904001030 27 175 3.2 6.4 0.00 0.25 0.25 79 1013.9
20260904000552 28 175 3.2 6.4 0.00 0.25 0.25 79 1013.9
20260904000031 28 175 3.2 6.4 0.00 0.25 0.25 79 1014.2
20260903235528 28 175 4.8 6.4 0.00 0.25 0.25 79 1014.2
20260903235027 28 178 3.2 4.8 0.00 0.25 0.25 78 1014.1
20260903234524 28 178 3.2 4.8 0.00 0.25 0.25 78 1014.2
20260903234042 28 178 3.2 6.4 0.00 0.25 0.25 77 1014.3
20260903233540 28 178 4.8 6.4 0.00 0.25 0.25 77 1014.4
20260903233039 28 140 3.2 4.8 0.00 0.25 0.25 76 1014.3
20260903232601 28 140 3.2 4.8 0.00 0.25 0.25 76 1014.0
20260903232039 28 140 3.2 4.8 0.00 0.25 0.25 75 1013.9
20260903231536 28 140 0.0 8.0 0.00 0.25 0.25 75 1013.6
20260903231034 29 119 3.2 8.0 0.00 0.25 0.25 74 1013.3
20260903230531 29 128 4.8 9.7 0.00 0.25 0.25 74 1013.1
20260903230030 29 182 3.2 4.8 0.00 0.25 0.25 73 1013.2